Theta_e
332 334 330 330 330 331 329 329 319 313 314 320 322 328 327 331 332 331 326 336 337 336 334 332 333 335 336 336 335 335 335 335 335 334 333 332 332 332
333 333 334 331 332 331 329 330 327 320 317 323 322 329 327 332 335 332 331 338 338 336 334 332 332 333 334 335 335 334 333 333 334 334 333 333 333 332
335 333 334 333 330 329 333 331 328 325 320 323 327 328 332 329 332 331 332 331 331 335 334 333 331 331 332 333 333 332 333 332 332 332 333 333 333 333
333 331 332 336 330 330 331 329 329 328 325 321 324 326 326 327 329 330 332 335 331 335 335 332 331 330 329 329 329 329 329 329 329 329 330 331 332 332
335 334 334 335 331 332 332 332 332 331 328 325 323 326 327 327 328 327 327 328 331 334 331 329 328 327 327 326 325 324 323 322 323 323 325 326 328 330
334 336 336 336 332 331 330 330 330 329 327 326 324 323 324 325 325 322 320 323 324 329 332 330 330 330 329 326 325 324 321 318 317 317 319 320 322 324
335 338 338 338 339 337 332 330 330 327 326 324 322 322 321 320 319 320 319 320 321 324 322 321 319 319 319 322 328 329 325 321 319 317 316 315 316 317
334 336 337 341 338 336 335 333 333 327 324 322 321 320 320 321 321 320 318 315 313 319 316 317 316 315 317 316 324 324 322 321 320 319 317 315 314 315
334 337 337 338 337 334 331 330 330 330 329 325 321 320 320 322 321 318 317 316 314 319 313 312 314 313 318 320 324 323 322 320 319 318 317 316 315 314
339 339 337 335 332 332 330 329 330 330 326 327 324 325 323 325 324 321 319 315 314 315 315 309 314 313 316 317 323 323 321 319 318 317 316 314 311 310
333 337 336 332 331 327 329 327 326 328 331 326 326 325 324 325 324 317 314 309 308 309 313 311 314 310 312 311 312 320 317 316 316 316 317 315 312 309
332 335 330 332 325 323 328 327 323 324 324 322 321 322 320 319 322 318 317 310 309 308 314 309 306 303 302 305 307 313 314 316 314 313 314 312 309 313
332 332 332 322 318 318 320 326 324 317 319 317 317 317 316 316 320 322 320 315 311 310 316 308 304 303 302 304 309 313 316 318 319 317 312 309 309 310
330 331 328 316 314 315 316 314 311 313 314 314 311 311 312 312 315 313 315 317 317 314 311 310 307 307 306 307 308 312 315 316 317 315 316 313 311 310
328 322 313 309 311 311 313 312 313 311 311 310 309 310 309 311 309 308 307 306 306 306 309 308 310 308 313 311 308 310 310 313 315 313 314 314 314 313
317 315 314 314 312 314 311 310 309 310 312 311 310 309 309 306 305 305 302 301 298 299 303 306 314 316 312 311 312 308 309 307 312 312 312 313 312 310
316 314 311 311 310 311 312 311 311 313 315 314 311 307 304 304 303 302 301 298 296 298 299 304 307 311 313 308 306 309 309 308 310 310 309 306 307 308
315 316 313 313 313 312 312 313 317 318 316 315 309 305 303 302 299 300 299 298 298 298 299 298 304 305 305 307 314 307 308 307 309 308 307 304 303 306
315 316 315 312 314 315 315 317 315 316 314 309 305 302 299 299 300 299 298 298 297 297 297 303 303 300 298 301 307 311 306 307 306 304 305 302 302 303
311 310 310 312 314 314 309 309 306 307 303 299 298 297 297 299 298 297 297 296 296 296 297 304 300 298 301 301 303 306 307 306 304 302 301 302 304 306
309 310 309 308 308 308 307 306 304 300 298 297 296 298 300 297 296 296 298 300 299 296 298 302 301 308 303 303 300 300 304 306 306 303 301 299 298 299
309 307 307 307 306 306 305 303 301 300 299 299 298 298 297 296 296 297 297 296 297 296 296 302 300 300 299 299 299 298 300 304 305 306 305 302 298 294
308 308 307 307 306 305 304 301 299 298 298 297 296 296 297 296 297 297 296 298 297 296 296 295 298 299 299 298 298 298 300 299 299 300 300 303 302 302
Wind_Speed
5 5 3 2 1 0 1 3 5 2 2 3 1 3 4 3 6 5 6 9 12 12 13 13 13 13 13 14 13 13 12 12 11 10 10 11 11 10
4 5 4 3 2 2 1 2 2 4 2 4 3 2 2 2 5 7 7 11 10 12 14 14 14 15 15 14 15 15 15 14 13 13 13 13 12 12
5 6 6 5 3 3 2 2 1 2 2 4 2 3 2 4 5 4 5 5 5 11 12 14 15 15 15 16 17 16 16 16 16 15 15 14 14 13
7 6 7 4 6 5 4 5 4 3 3 4 3 2 3 4 5 4 5 3 5 9 12 12 11 14 16 18 19 17 17 17 16 16 16 16 16 15
7 7 7 6 6 4 3 4 3 2 2 2 3 2 3 2 5 4 4 3 3 8 10 11 10 10 12 14 15 16 16 14 15 14 16 18 18 16
7 7 7 8 7 7 6 6 3 3 3 3 3 4 4 5 2 1 4 2 3 4 5 7 9 9 10 10 11 13 15 15 14 15 18 19 19 19
7 7 9 9 11 10 5 6 6 4 3 3 4 2 3 2 2 2 3 3 3 4 3 3 3 4 4 5 8 12 15 16 16 17 17 16 15 16
7 7 7 11 9 12 13 10 9 6 5 3 4 5 5 3 2 2 2 2 4 2 1 6 1 5 7 5 11 13 13 12 15 16 15 14 14 15
7 8 6 6 8 5 10 9 8 10 9 5 5 5 5 5 4 3 4 4 5 7 0 6 2 5 7 7 12 13 13 16 13 12 12 14 16 18
8 9 8 6 5 5 5 6 7 6 6 5 6 8 7 7 6 6 6 4 3 5 4 4 3 5 4 5 11 15 15 14 13 13 14 16 17 16
5 6 6 6 8 7 5 5 7 6 6 11 12 10 10 10 7 2 4 2 4 4 2 3 5 3 3 5 6 11 11 10 14 17 18 18 17 17
5 7 13 10 8 7 7 6 6 4 2 2 1 3 5 7 11 7 5 4 3 4 4 3 3 3 6 4 4 4 5 12 16 18 18 17 14 11
7 5 5 10 11 10 9 6 4 4 1 2 3 4 5 5 5 3 5 5 4 5 7 1 3 3 4 5 3 3 7 9 9 9 12 14 16 16
4 4 3 9 7 9 7 8 8 3 2 3 2 3 4 3 2 3 5 5 5 7 7 5 4 5 4 3 6 4 8 9 8 9 10 11 16 17
3 3 4 7 8 5 7 9 7 3 2 1 2 3 3 3 4 4 5 5 4 5 5 6 6 7 4 4 6 6 10 8 8 8 9 12 13 12
6 4 4 4 4 4 3 4 4 4 4 3 2 3 2 2 3 1 2 2 2 5 8 7 4 3 3 4 5 10 9 7 9 9 11 14 13 14
5 3 2 2 3 3 3 5 4 4 4 3 2 1 1 2 2 2 2 3 2 4 5 5 6 4 3 4 7 10 10 9 11 12 12 15 15 15
3 3 4 5 5 5 5 5 4 6 3 2 3 2 2 2 2 3 2 2 3 4 4 3 3 4 4 5 11 7 7 9 11 14 14 14 17 15
3 4 4 5 5 5 5 4 2 3 3 1 2 1 1 2 3 3 3 3 4 4 4 2 1 2 3 7 6 6 6 10 12 14 12 12 15 19
3 3 3 2 2 3 3 3 3 4 3 2 0 2 3 2 2 3 4 3 4 5 3 2 1 1 2 3 4 10 13 9 11 12 12 13 14 26
3 1 4 5 5 5 5 4 4 3 2 0 2 2 4 1 2 4 5 7 7 3 3 3 3 6 4 3 4 5 8 11 14 11 12 12 12 10
5 5 4 5 5 5 4 3 2 2 2 2 3 1 1 2 3 5 5 4 5 4 3 3 2 2 2 1 6 8 9 11 13 18 14 19 10 9
5 6 5 5 4 4 4 3 1 2 3 2 3 3 3 3 4 4 4 6 5 4 3 4 1 1 1 2 4 6 11 14 12 13 11 21 23 21
Wind_Direction
212 210 194 218 122 96 131 153 151 180 282 295 253 240 215 169 194 189 208 230 222 219 221 225 229 231 228 232 238 239 238 240 246 257 262 273 283 292
201 211 234 226 153 105 48 122 144 163 204 204 251 267 179 180 212 196 218 227 227 227 222 231 238 243 243 235 232 231 237 241 243 243 242 244 250 264
198 190 214 211 194 170 137 75 96 117 174 303 228 250 214 232 265 247 243 243 248 242 229 233 242 246 250 245 238 230 232 237 238 244 249 245 243 244
202 193 211 204 208 205 182 184 172 183 159 250 278 290 255 251 236 228 245 250 257 262 259 250 249 246 244 243 240 233 230 232 238 240 243 248 247 245
195 201 212 202 216 223 198 211 202 170 173 207 260 259 274 276 279 264 253 277 264 264 268 259 276 277 262 255 246 245 247 241 237 236 236 242 245 242
203 208 206 210 203 210 200 204 210 219 220 220 243 248 240 269 217 210 309 298 299 302 292 283 282 290 300 294 271 262 257 258 254 247 245 244 240 241
206 205 210 207 207 201 194 199 195 233 236 228 250 257 247 258 223 227 222 252 273 233 264 283 319 318 297 284 253 253 250 245 247 252 253 248 243 241
215 220 213 218 217 215 203 187 189 202 228 196 236 236 258 232 229 261 264 332 304 253 53 294 275 286 283 277 261 270 270 246 246 249 250 242 241 244
204 219 218 225 214 217 234 234 252 226 205 190 231 229 240 229 202 241 244 219 229 271 302 276 248 262 263 264 261 273 279 282 284 256 238 238 241 242
208 214 209 218 238 231 212 223 240 250 219 210 209 248 234 239 210 211 223 240 283 272 183 248 263 249 261 260 272 278 281 285 280 256 254 251 251 251
221 225 215 222 228 229 232 265 279 273 230 214 212 242 260 250 237 143 262 243 274 262 243 212 282 264 240 256 257 259 282 284 283 283 281 275 268 264
236 227 221 201 218 231 200 215 245 253 306 77 300 257 252 258 255 205 253 229 246 307 261 173 259 271 296 234 242 251 258 265 266 267 266 265 268 279
221 220 225 197 178 186 211 195 195 139 216 244 261 292 295 277 274 261 197 190 222 235 258 214 252 260 219 279 280 271 276 278 278 273 271 267 267 262
220 214 201 175 188 203 178 161 157 157 218 290 339 307 287 304 240 232 238 240 237 240 268 237 232 253 268 277 277 282 299 289 281 278 285 281 274 262
151 169 123 135 145 147 183 177 177 197 207 204 267 252 236 269 287 322 326 337 319 293 279 266 264 282 220 259 280 301 309 298 285 281 282 284 276 279
111 119 168 169 146 175 174 210 210 211 205 221 234 253 304 344 340 316 299 292 307 295 297 287 251 226 259 249 277 296 299 286 293 287 285 288 279 281
134 98 112 154 208 217 220 216 217 216 223 225 254 253 276 337 310 293 268 295 277 276 290 288 287 260 252 252 291 289 300 290 294 297 302 295 287 285
119 166 191 203 210 213 205 219 214 220 201 224 176 204 262 280 284 301 282 277 282 286 276 298 344 354 322 280 248 281 293 292 303 305 300 292 292 292
189 195 196 202 218 194 192 202 192 202 148 65 52 23 316 316 332 301 302 299 293 284 294 264 24 42 321 309 288 296 297 301 310 312 304 299 294 302
208 210 209 229 145 119 95 97 90 79 95 129 114 302 324 325 302 319 314 285 295 297 308 275 341 269 231 273 296 291 293 301 316 313 315 303 291 293
202 24 102 98 93 94 96 96 106 116 146 38 334 346 315 275 325 319 307 305 314 316 300 267 238 247 255 278 295 293 302 301 318 320 324 316 320 316
126 131 122 112 116 118 114 111 74 20 319 284 256 267 298 12 331 313 307 318 304 283 254 256 241 333 15 298 313 307 312 329 328 333 330 342 333 331
147 124 117 116 129 135 133 130 117 285 283 149 123 68 35 356 326 306 316 312 300 310 285 306 270 2 290 274 301 319 326 336 337 339 342 351 349 347